Location: Ostrava
(49.8330°N, 18.2830°E)
Time: 19:10:50
(UTC+02:00)

Iridium 7 - Visible Passes

Search period start: 03 September 2015 00:00
Search period end: 13 September 2015 00:00
Orbit: 776 x 779 km, 86.4° (Epoch: 02 September)

Date Brightness Start Highest point End Pass type
(mag) Time Alt. Az. Time Alt. Az. Time Alt. Az.
03 Sep 7.8 03:54:08 10° NNE 03:58:22 25° ENE 04:02:41 10° SE visible
04 Sep 8.4 03:21:27 10° NNE 03:24:24 15° ENE 03:27:31 10° ESE visible
04 Sep 5.5 05:00:45 10° N 05:06:00 87° W 05:11:13 10° S visible
05 Sep 6.3 04:27:15 10° N 04:32:24 56° E 04:37:32 10° SSE visible
06 Sep 7.2 03:53:59 10° NNE 03:58:40 33° ENE 04:03:24 10° SE visible
06 Sep 6.1 05:34:41 10° NNW 05:39:29 37° W 05:44:14 10° SSW visible
07 Sep 8.0 03:20:58 10° NNE 03:24:47 21° ENE 03:28:43 10° ESE visible
07 Sep 5.5 05:00:54 10° N 05:06:05 64° W 05:11:13 10° S visible
08 Sep 8.4 02:48:40 10° NE 02:50:45 13° ENE 02:53:05 10° E visible
08 Sep 5.7 04:27:19 10° N 04:32:33 77° E 04:37:47 10° S visible
09 Sep 6.6 03:53:54 10° N 03:58:55 45° E 04:03:56 10° SSE visible
09 Sep 6.5 05:35:03 10° NNW 05:39:28 28° W 05:43:47 10° SW visible
10 Sep 7.5 03:20:43 10° NNE 03:25:07 27° ENE 03:29:36 10° SE visible
10 Sep 5.8 05:01:08 10° NNW 05:06:07 46° W 05:11:04 10° SSW visible
11 Sep 8.1 02:47:53 10° NNE 02:51:11 17° ENE 02:54:39 10° ESE visible
11 Sep 5.4 04:27:26 10° N 04:32:41 79° W 04:37:53 10° S visible
12 Sep 8.6 02:16:55 10° ENE 02:17:05 10° ENE 02:17:33 10° ENE visible
12 Sep 5.9 03:53:55 10° N 03:59:07 62° E 04:04:17 10° SSE visible
12 Sep 6.8 05:35:34 10° NNW 05:39:25 21° WNW 05:43:07 10° SW visible
